GW5323 Weather Reports


time (UTC)temp
C
wind
direction
speed
KPH
gust
KPH
rain 1hr
cm
rain 24hr
cm
rain mn
cm
humidity
%
barometer
mb
20260505025234 11 47 0.0 3.2 0.00 0.03 0.03 97 1011.5
20260505024732 11 96 3.2 3.2 0.00 0.03 0.03 97 1011.4
20260505024229 11 44 0.0 1.6 0.00 0.03 0.03 97 1011.5
20260505023726 11 249 3.2 3.2 0.00 0.03 0.03 97 1011.6
20260505023223 13 269 3.2 3.2 0.00 0.03 0.03 91 1011.5
20260505022721 13 269 3.2 3.2 0.00 0.03 0.03 91 1011.6
20260505022217 13 269 3.2 3.2 0.00 0.03 0.03 91 1011.7
20260505021714 13 269 3.2 3.2 0.00 0.03 0.03 91 1011.6
20260505021211 13 269 3.2 3.2 0.00 0.03 0.03 91 1011.3
20260505020707 13 269 3.2 3.2 0.00 0.03 0.03 91 1011.5
20260505020202 13 269 3.2 3.2 0.00 0.03 0.03 91 1011.5
20260505015700 13 269 3.2 3.2 0.00 0.03 0.03 91 1011.2
20260505015156 13 269 3.2 3.2 0.00 0.03 0.03 91 1011.5
20260505014654 16 241 3.2 6.4 0.00 0.03 0.03 69 1011.5
20260505014151 16 241 3.2 6.4 0.00 0.03 0.03 69 1011.4
20260505013648 16 241 3.2 6.4 0.00 0.03 0.03 69 1011.5
20260505013145 16 241 3.2 6.4 0.00 0.03 0.03 69 1011.5
20260505012643 16 241 3.2 6.4 0.00 0.03 0.03 69 1011.3
20260505012140 16 241 3.2 6.4 0.00 0.03 0.03 69 1011.0
20260505011635 16 241 3.2 6.4 0.13 0.03 0.03 69 1011.1
20260505011133 17 38 9.7 20.9 0.13 0.03 0.03 68 1011.4
20260505010633 17 98 4.8 9.7 0.00 0.00 0.00 54 1011.7
20260505010130 17 82 1.6 1.6 0.00 0.00 0.00 56 1011.3
20260505005626 17 154 0.0 3.2 0.00 0.00 0.00 55 1011.1
20260505005124 17 64 1.6 1.6 0.00 0.00 0.00 51 1011.0
20260505004621 18 125 1.6 3.2 0.00 0.00 0.00 51 1010.8
20260505004117 18 103 1.6 1.6 0.00 0.00 0.00 50 1010.9
20260505003615 18 112 0.0 1.6 0.00 0.00 0.00 49 1010.6
20260505003112 18 297 3.2 4.8 0.00 0.00 0.00 47 1010.8
20260505002608 18 84 4.8 4.8 0.00 0.00 0.00 48 1010.8
20260505002107 18 156 0.0 4.8 0.00 0.00 0.00 47 1010.7
20260505001603 18 72 4.8 6.4 0.00 0.00 0.00 47 1010.6
20260505001101 19 193 0.0 3.2 0.00 0.00 0.00 47 1010.7
20260505000558 19 31 4.8 6.4 0.00 0.00 0.00 45 1010.7
20260505000055 20 48 3.2 6.4 0.00 0.00 0.00 45 1010.6
20260504235552 20 41 4.8 6.4 0.00 0.00 0.00 45 1010.6
20260504235049 20 287 3.2 14.5 0.00 0.00 0.00 43 1010.5
20260504234545 20 70 6.4 9.7 0.00 0.00 0.00 44 1010.5
20260504234043 20 60 6.4 6.4 0.00 0.00 0.00 47 1010.4
20260504233538 21 26 3.2 4.8 0.00 0.00 0.00 45 1010.4
20260504233035 22 91 8.0 8.0 0.00 0.00 0.00 43 1010.3
20260504232532 22 147 1.6 3.2 0.00 0.00 0.00 44 1010.1
20260504232030 22 238 3.2 9.7 0.00 0.00 0.00 44 1010.1
20260504231526 22 50 6.4 8.0 0.00 0.00 0.00 44 1010.1
20260504231022 21 125 3.2 6.4 0.00 0.00 0.00 45 1010.1
20260504230519 22 36 3.2 11.3 0.00 0.00 0.00 45 1009.9
20260504230018 22 357 3.2 6.4 0.00 0.00 0.00 44 1009.8
20260504225514 22 337 3.2 11.3 0.00 0.00 0.00 45 1009.9
20260504225011 21 44 8.0 14.5 0.00 0.00 0.00 43 1009.8
20260504224508 22 9 3.2 11.3 0.00 0.00 0.00 43 1009.9
20260504224005 22 42 8.0 16.1 0.00 0.00 0.00 43 1010.1
20260504223501 22 12 6.4 8.0 0.00 0.00 0.00 43 1009.8
20260504222957 21 60 8.0 9.7 0.00 0.00 0.00 44 1009.9
20260504222455 22 329 3.2 20.9 0.00 0.00 0.00 44 1009.9
20260504221952 22 35 8.0 25.7 0.00 0.00 0.00 43 1010.1
20260504221449 22 42 11.3 17.7 0.00 0.00 0.00 43 1009.8
20260504220946 22 86 8.0 17.7 0.00 0.00 0.00 42 1009.8
20260504220442 22 31 0.0 22.5 0.00 0.00 0.00 43 1009.8
20260504215939 24 62 3.2 8.0 0.00 0.00 0.00 40 1009.8
20260504215436 23 330 8.0 24.1 0.00 0.00 0.00 39 1009.8
20260504214933 23 355 3.2 9.7 0.00 0.00 0.00 43 1009.7
20260504214429 23 24 4.8 24.1 0.00 0.00 0.00 42 1009.6
20260504213926 23 68 9.7 16.1 0.00 0.00 0.00 39 1009.7
20260504213422 23 249 4.8 9.7 0.00 0.00 0.00 37 1009.8
20260504212920 23 200 6.4 17.7 0.00 0.00 0.00 38 1009.5
20260504212415 24 97 4.8 6.4 0.00 0.00 0.00 37 1009.6
20260504211913 24 299 3.2 12.9 0.00 0.00 0.00 37 1009.6
20260504211409 23 122 0.0 3.2 0.00 0.00 0.00 41 1009.7
20260504210906 24 152 4.8 9.7 0.00 0.00 0.00 38 1009.7
20260504210403 23 53 4.8 6.4 0.00 0.00 0.00 39 1009.7
20260504205900 23 64 6.4 9.7 0.00 0.00 0.00 39 1009.9
20260504205358 23 26 16.1 20.9 0.00 0.00 0.00 36 1009.9
20260504204856 23 335 4.8 12.9 0.00 0.00 0.00 37 1010.2
20260504204354 23 45 9.7 14.5 0.00 0.00 0.00 40 1009.8
20260504203854 23 34 11.3 20.9 0.00 0.00 0.00 37 1010.2
20260504203350 23 77 3.2 14.5 0.00 0.00 0.00 37 1010.2
20260504202846 23 58 3.2 14.5 0.00 0.00 0.00 39 1010.3
20260504202343 23 52 8.0 16.1 0.00 0.00 0.00 38 1010.2
20260504201839 23 64 9.7 22.5 0.00 0.00 0.00 39 1010.2
20260504201337 23 55 11.3 19.3 0.00 0.00 0.00 39 1010.4
20260504200834 23 53 6.4 9.7 0.00 0.00 0.00 41 1010.4
20260504200331 22 54 3.2 17.7 0.00 0.00 0.00 39 1010.5
20260504195827 23 85 6.4 11.3 0.00 0.00 0.00 36 1010.6
20260504195323 22 78 3.2 17.7 0.00 0.00 0.00 43 1010.5
20260504194820 22 46 3.2 9.7 0.00 0.00 0.00 38 1010.5
20260504194316 22 37 12.9 17.7 0.00 0.00 0.00 37 1010.6
20260504193812 23 14 12.9 25.7 0.00 0.00 0.00 38 1010.7
20260504193310 22 16 8.0 22.5 0.00 0.00 0.00 37 1010.7
20260504192808 23 126 6.4 8.0 0.00 0.00 0.00 36 1010.8
20260504192306 22 72 17.7 24.1 0.00 0.00 0.00 34 1010.9
20260504191804 22 29 3.2 6.4 0.00 0.00 0.00 38 1011.0
20260504191301 22 353 4.8 25.7 0.00 0.00 0.00 35 1011.0
20260504190756 22 63 14.5 22.5 0.00 0.00 0.00 36 1011.0
20260504190253 23 47 4.8 11.3 0.00 0.00 0.00 38 1010.9
20260504185749 23 209 9.7 16.1 0.00 0.00 0.00 39 1011.3
20260504185246 22 276 0.0 16.1 0.00 0.00 0.00 41 1011.3
20260504184742 22 75 9.7 12.9 0.00 0.00 0.00 39 1011.3
20260504184238 23 38 12.9 17.7 0.00 0.00 0.00 36 1011.3
20260504183734 22 273 1.6 9.7 0.00 0.00 0.00 36 1011.3
20260504183232 22 21 4.8 17.7 0.00 0.00 0.00 42 1011.4
20260504182730 22 313 3.2 9.7 0.00 0.00 0.00 40 1011.8
20260504182226 21 44 9.7 22.5 0.00 0.00 0.00 38 1011.7
20260504181724 21 63 9.7 27.4 0.00 0.00 0.00 38 1011.8
20260504181221 21 40 4.8 9.7 0.00 0.00 0.00 41 1011.9
20260504180720 22 269 6.4 8.0 0.00 0.00 0.00 41 1011.8
20260504180219 22 311 3.2 14.5 0.00 0.00 0.00 39 1011.8
20260504175716 21 63 6.4 25.7 0.00 0.00 0.00 41 1012.0
20260504175212 22 149 6.4 22.5 0.00 0.00 0.00 40 1011.9
20260504174710 21 282 6.4 24.1 0.00 0.00 0.00 39 1012.1
20260504174208 21 261 3.2 14.5 0.00 0.00 0.00 40 1012.2
20260504173704 22 346 9.7 9.7 0.00 0.00 0.00 38 1012.2
20260504173202 20 71 3.2 6.4 0.00 0.00 0.00 44 1012.2
20260504172658 21 73 8.0 22.5 0.00 0.00 0.00 42 1012.5
20260504172154 21 87 4.8 19.3 0.00 0.00 0.00 40 1012.5
20260504171650 20 302 4.8 27.4 0.00 0.00 0.00 45 1012.5
20260504171148 20 238 3.2 20.9 0.00 0.00 0.00 40 1012.6
20260504170644 21 300 8.0 16.1 0.00 0.00 0.00 43 1012.8
20260504170142 20 264 4.8 20.9 0.00 0.00 0.00 43 1013.0
20260504151028 18 57 6.4 8.0 0.00 0.00 0.00 48 1014.5
20260504150525 17 302 1.6 8.0 0.00 0.00 0.00 49 1014.5
20260504140956 15 283 0.0 6.4 0.00 0.00 0.00 50 1015.0
20260504140453 15 57 8.0 9.7 0.00 0.00 0.00 50 1014.9
20260504130417 10 16 8.0 8.0 0.00 0.00 0.00 65 1015.2
20260504110304 0 243 0.0 3.2 0.00 0.00 0.00 99 1015.8
20260504100222 -1 263 0.0 3.2 0.00 0.00 0.00 99 1015.6
20260504081615 -1 248 3.2 3.2 0.00 0.00 0.00 99 1016.1
20260504081111 -1 240 3.2 3.2 0.00 0.00 0.00 99 1016.0
20260504080608 -1 275 1.6 3.2 0.00 0.00 0.00 99 1016.4
20260504080104 -1 229 1.6 3.2 0.00 0.00 0.00 99 1016.1
20260504050421 0 235 0.0 0.0 0.00 0.00 0.00 96 1016.9
20260504045918 0 235 0.0 0.0 0.00 0.00 0.00 96 1016.9
20260504045413 0 235 0.0 0.0 0.00 0.00 0.00 96 1016.8
20260504044910 0 235 0.0 0.0 0.00 0.00 0.00 96 1017.0
20260504044408 0 235 0.0 0.0 0.00 0.00 0.00 96 1016.9
20260504043905 0 260 1.6 1.6 0.00 0.00 0.00 96 1016.9
20260504043401 0 227 0.0 1.6 0.00 0.00 0.00 96 1016.9
20260504042859 0 243 0.0 0.0 0.00 0.00 0.00 95 1016.7
20260504042355 0 283 0.0 0.0 0.00 0.00 0.00 95 1016.7
20260504041851 0 15 0.0 0.0 0.00 0.00 0.00 94 1016.8
20260504041348 0 117 1.6 3.2 0.00 0.00 0.00 94 1016.8
20260504040844 0 117 1.6 3.2 0.00 0.00 0.00 94 1016.7
20260504040342 0 117 1.6 3.2 0.00 0.00 0.00 94 1016.9
20260504035837 0 117 1.6 3.2 0.00 0.00 0.00 94 1016.9
20260504035336 1 315 0.0 0.0 0.00 0.00 0.00 94 1016.8
20260504034832 0 212 0.0 1.6 0.00 0.00 0.00 93 1016.7
20260504034330 0 193 0.0 0.0 0.00 0.00 0.00 93 1016.7
20260504033827 1 104 0.0 0.0 0.00 0.00 0.00 93 1016.6
20260504033325 1 221 0.0 0.0 0.00 0.00 0.00 93 1016.7
20260504032821 1 296 1.6 3.2 0.00 0.00 0.00 92 1016.9
20260504032318 1 339 0.0 0.0 0.00 0.00 0.00 92 1016.9
20260504031815 1 339 0.0 0.0 0.00 0.00 0.00 92 1016.8
20260504031312 1 340 0.0 1.6 0.00 0.00 0.00 90 1016.6
20260504030808 1 340 0.0 1.6 0.00 0.00 0.00 90 1016.8
20260504030306 1 340 0.0 1.6 0.00 0.00 0.00 90 1016.6
20260504025801 2 260 0.0 1.6 0.00 0.00 0.00 90 1016.9